Location: Wien
(48.2082°N, 16.3738°E)
Time: 11:43:49
(UTC+01:00)

Explorer 11/Cluster Stage 4 - All Passes

Search period start: 22 February 2024 00:00
Search period end: 03 March 2024 00:00
Orbit: 465 x 1224 km, 28.8° (Epoch: 21 February)

Date Brightness Start Highest point End Pass type
(mag) Time Alt. Az. Time Alt. Az. Time Alt. Az.
22 Feb - 03:04:58 10° SSW 03:06:59 11° S 03:08:53 10° SSE visible
22 Feb - 04:53:03 10° SSW 04:54:02 10° S 04:55:00 10° S visible
23 Feb - 02:47:31 10° SSW 02:50:20 13° S 02:52:59 10° SSE visible
23 Feb - 04:35:39 10° SSW 04:37:26 11° S 04:39:08 10° S visible
24 Feb - 02:30:14 10° SSW 02:33:39 14° S 02:36:51 10° SSE visible
24 Feb - 04:18:29 10° SSW 04:20:47 12° SSW 04:22:59 10° S visible
25 Feb - 02:13:03 10° SSW 02:16:56 15° S 02:20:34 10° SE visible
25 Feb - 04:01:24 10° SW 04:04:07 12° SSW 04:06:40 10° S visible
26 Feb - 00:10:55 10° S 00:12:52 11° SSE 00:14:48 10° SSE night (unlit)
26 Feb - 01:55:57 10° SSW 02:00:11 16° S 02:04:11 10° SE night (unlit)
26 Feb - 03:44:23 10° SW 03:47:24 13° SSW 03:50:15 10° SSE visible
26 Feb - 23:53:22 10° S 23:56:04 12° SSE 23:58:43 10° SE night (unlit)
27 Feb - 01:38:53 10° SSW 01:43:24 16° S 01:47:41 10° SE night (unlit)
27 Feb - 03:27:25 10° SW 03:30:39 13° SSW 03:33:43 10° SSE visible
27 Feb - 23:36:04 10° S 23:39:14 13° SSE 23:42:23 10° SE night (unlit)
28 Feb - 01:21:53 10° SW 01:26:36 17° S 01:31:07 10° SE night (unlit)
28 Feb - 03:10:29 10° SW 03:13:52 13° SSW 03:17:05 10° SSE visible
28 Feb - 23:18:55 10° S 23:22:23 13° SSE 23:25:53 10° SE night (unlit)
29 Feb - 01:04:55 10° SW 01:09:46 17° S 01:14:28 10° SE night (unlit)
29 Feb - 02:53:37 10° SW 02:57:04 13° SSW 03:00:23 10° S visible
29 Feb - 23:01:52 10° SSW 23:05:32 14° SSE 23:09:15 10° SE night (unlit)
01 Mar - 00:48:01 10° SW 00:52:55 18° S 00:57:44 10° SE night (unlit)
01 Mar - 02:36:47 10° SW 02:40:14 13° SSW 02:43:34 10° S night (unlit)
01 Mar - 22:44:54 10° SSW 22:48:40 14° SSE 22:52:31 10° SE night (unlit)
02 Mar - 00:31:09 10° SW 00:36:02 18° S 00:40:55 10° SE night (unlit)
02 Mar - 02:20:01 10° SW 02:23:22 13° SSW 02:26:39 10° S night (unlit)
02 Mar - 22:28:01 10° SSW 22:31:48 14° SSE 22:35:43 10° SE night (unlit)
